PDT,Max TemperatureF,Mean TemperatureF,Min TemperatureF,Max Dew PointF,MeanDew PointF,Min DewpointF,Max Humidity, Mean Humidity, Min Humidity, Max Sea Level PressureIn, Mean Sea Level PressureIn, Min Sea Level PressureIn, Max VisibilityMiles, Mean VisibilityMiles, Min VisibilityMiles, Max Wind SpeedMPH, Mean Wind SpeedMPH, Max Gust SpeedMPH,PrecipitationIn, CloudCover, Events, WindDirDegrees
2013-5-1,62,47,32,35,28,21,92,57,22,30.62,30.56,30.41,10,10,10,12,4,18,0.00,0,,77
2013-5-2,74,55,35,35,31,24,75,46,17,30.62,30.44,30.23,10,10,10,12,4,15,0.00,0,,95
2013-5-3,75,63,50,41,38,35,63,45,27,30.24,30.19,30.13,10,10,10,17,6,24,0.00,3,,348
2013-5-4,77,61,44,41,36,31,71,45,19,30.22,30.11,30.00,10,10,10,20,8,26,0.00,0,,84
2013-5-5,83,65,47,40,37,34,61,41,20,30.00,29.88,29.76,10,10,10,15,5,21,0.00,0,,63
2013-5-6,87,69,51,43,38,32,59,37,14,29.86,29.78,29.68,10,10,10,14,3,,0.00,0,,199
2013-5-7,89,71,52,46,41,37,61,39,17,29.85,29.79,29.74,10,10,10,15,5,17,0.00,0,,315
2013-5-8,87,70,53,48,45,39,55,40,25,29.97,29.92,29.84,10,10,10,13,4,18,0.00,0,,243
2013-5-9,89,73,56,53,48,45,72,48,24,30.06,30.01,29.96,10,10,10,14,5,18,0.00,0,,279
2013-5-10,93,75,56,51,46,35,72,43,14,30.15,30.09,30.03,10,10,10,12,5,15,0.00,0,,68
2013-5-11,91,75,59,50,47,45,60,41,21,30.12,30.05,29.97,10,10,10,17,4,,0.00,0,,52
2013-5-12,89,75,60,54,50,45,72,50,28,30.01,29.97,29.90,10,10,10,20,7,29,0.00,1,,338
2013-5-13,82,69,55,53,47,39,77,56,35,30.10,29.98,29.87,10,10,5,33,8,47,0.04,5,Rain,298
2013-5-14,68,58,48,40,36,32,63,48,32,30.16,30.10,30.04,10,10,10,16,5,28,0.00,1,,310
2013-5-15,72,57,41,40,35,31,70,47,24,30.09,30.00,29.90,10,10,10,10,4,15,0.00,2,,301
2013-5-16,71,62,53,45,42,39,62,47,31,29.94,29.89,29.82,10,10,10,10,4,14,0.00,5,,53
2013-5-17,73,61,48,48,44,40,77,56,35,29.96,29.88,29.84,10,10,6,21,7,28,0.00,2,,276
2013-5-18,64,58,52,49,45,41,77,60,43,30.15,30.06,29.96,10,10,10,14,3,16,0.06,8,Rain,178
2013-5-19,69,61,52,49,44,40,83,59,35,30.26,30.22,30.16,10,10,10,13,3,21,0.01,7,Rain,246
2013-5-20,78,62,46,47,43,41,80,54,28,30.28,30.10,29.85,10,10,10,12,4,18,0.00,0,,149
2013-5-21,78,62,45,47,44,41,93,64,35,29.83,29.72,29.57,10,10,5,36,10,46,0.20,3,Rain,335
2013-5-22,56,47,38,43,38,36,92,72,51,30.02,29.93,29.80,10,10,7,21,4,33,0.28,6,Rain,26
2013-5-23,66,50,34,40,36,31,92,60,28,30.05,29.99,29.94,10,10,10,20,5,25,0.00,1,,276
2013-5-24,59,51,42,45,41,34,89,70,51,30.04,30.01,29.94,10,10,5,8,4,33,0.05,3,Rain,117
2013-5-25,68,55,41,43,39,36,89,61,32,30.05,30.00,29.96,10,10,10,10,3,,0.00,3,,69
2013-5-26,69,58,47,49,43,38,82,58,34,29.96,29.94,29.90,10,10,10,20,4,23,T,4,,294
2013-5-27,73,63,52,52,48,39,93,62,31,29.95,29.85,29.78,10,10,10,18,5,24,0.01,6,Rain,197
2013-5-28,68,59,49,50,46,43,93,68,42,29.86,29.81,29.77,10,10,10,13,4,16,T,7,,175
2013-5-29,63,56,48,51,47,43,93,80,66,29.92,29.78,29.68,10,10,6,16,5,22,0.19,6,Rain-Thunderstorm,173
2013-5-30,66,56,45,46,41,35,86,60,34,30.14,30.04,29.93,10,10,10,15,3,20,0.02,5,Rain,216
2013-5-31,72,59,45,43,40,37,83,56,29,30.28,30.23,30.15,10,10,10,12,3,17,0.00,2,,67